TimeEDT,TemperatureF,Dew PointF,Humidity,Sea Level PressureIn,VisibilityMPH,Wind Direction,Wind SpeedMPH,Gust SpeedMPH,PrecipitationIn,Events,Conditions,WindDirDegrees,DateUTC
12:53 AM,63.0,55.9,78,30.06,10.0,SSW,5.8,-,N/A,,Clear,210,2013-05-10 04:53:00
1:53 AM,64.9,55.9,73,30.05,10.0,Calm,Calm,-,N/A,,Clear,0,2013-05-10 05:53:00
2:53 AM,61.0,55.9,83,30.04,10.0,South,3.5,-,N/A,,Clear,190,2013-05-10 06:53:00
3:53 AM,61.0,57.0,87,30.05,10.0,SSW,6.9,-,N/A,,Clear,200,2013-05-10 07:53:00
4:53 AM,61.0,57.0,87,30.04,10.0,SSW,4.6,-,N/A,,Clear,210,2013-05-10 08:53:00
5:53 AM,61.0,57.9,90,30.04,10.0,SSW,3.5,-,N/A,,Clear,210,2013-05-10 09:53:00
6:53 AM,61.0,57.9,90,30.05,9.0,SSW,3.5,-,N/A,,Clear,200,2013-05-10 10:53:00
8:53 AM,70.0,62.1,76,30.05,10.0,SW,4.6,-,N/A,,Clear,230,2013-05-10 12:53:00
9:53 AM,75.9,61.0,60,30.05,10.0,SW,5.8,-,N/A,,Clear,230,2013-05-10 13:53:00
10:53 AM,81.0,61.0,50,30.05,10.0,SSW,8.1,-,N/A,,Clear,200,2013-05-10 14:53:00
11:53 AM,84.9,57.9,40,30.04,10.0,SSW,6.9,-,N/A,,Clear,210,2013-05-10 15:53:00
1:53 PM,86.0,55.9,36,30.01,10.0,South,15.0,-,N/A,,Partly Cloudy,190,2013-05-10 17:53:00
2:53 PM,86.0,57.0,37,30.00,10.0,SSW,12.7,24.2,N/A,,Scattered Clouds,200,2013-05-10 18:53:00
3:53 PM,87.1,55.9,35,29.98,10.0,South,15.0,21.9,N/A,,Partly Cloudy,190,2013-05-10 19:53:00
4:53 PM,87.1,55.0,33,29.97,10.0,SW,16.1,-,N/A,,Clear,220,2013-05-10 20:53:00
5:53 PM,86.0,55.9,36,29.95,10.0,SSW,12.7,-,N/A,,Clear,200,2013-05-10 21:53:00
6:53 PM,82.9,57.0,41,29.95,10.0,South,9.2,-,N/A,,Clear,190,2013-05-10 22:53:00
7:53 PM,79.0,61.0,54,29.96,10.0,South,10.4,-,N/A,,Clear,170,2013-05-10 23:53:00
8:53 PM,77.0,60.1,56,29.96,10.0,South,8.1,-,N/A,,Clear,170,2013-05-11 00:53:00
9:53 PM,75.9,60.1,58,29.98,10.0,South,10.4,-,N/A,,Clear,180,2013-05-11 01:53:00
10:53 PM,75.0,60.1,60,29.98,10.0,South,9.2,-,N/A,,Clear,180,2013-05-11 02:53:00
11:53 PM,73.9,60.1,62,29.97,10.0,South,10.4,-,N/A,,Clear,190,2013-05-11 03:53:00